Погода в Виамане

Бразилия     30°05′18″S   51°01′24″W
темп.,
°C
ветер,
м/с
пор.,
м/с
влажн.,
%
обл.,
%
осадки,
мм/ч
давл.,
гПа
погр.,
м
27 февраля, сб
сб2700:00+22в611720 0.0 1018818
03:00+21в411770 0.0 1017641
06:00+21вюв410822 0.0 1018556
09:00+25в58678 0.0 1020989
12:00+28вюв575470 0.1 10201276
15:00+29в694858 0.3 10181497
18:00+26в711578 0.0 10181228
21:00+23в612694 0.0 10191107
28 февраля, вс
вс2800:00+22в512700 0.0 1020970
03:00+21в411770 0.0 1018772
06:00+21вюв310810 0.0 1018601
09:00+25в58620 0.1 10191206
12:00+29вюв574542 0.0 10181754
15:00+28вюв7105641 0.3 10161329
18:00+25вюв7127050 0.3 10151095
21:00+24в7137666 0.3 10151076
1 марта, пн
пн100:00+23в6127817 0.0 1014909
03:00+22в511839 0.0 1012667
06:00+22вюв388610 0.0 1013415
09:00+26в35695 0.1 1013817
12:00+30юв445324 0.4 10131191
15:00+30вюв665525 0.8 10111283
18:00+27вюв586532 0.1 1011996
21:00+24вюв498220 0.1 1012579
2 марта, вт
вт200:00+23вюв48894 0.0 1012452
03:00+22в369221 0.0 1011333
06:00+22в249265 0.0 1012226
09:00+26вюв357345 0.0 1013653
12:00+30вюв335453 0.3 10131140
15:00+30юв455561 0.4 10121289
18:00+27вюв586650 0.1 1011977
21:00+24вюв498129 0.1 1014595
3 марта, ср
ср300:00+23вюв38860 0.0 1014465
03:00+22вюв37901 0.0 1014364
06:00+22вюв369019 0.0 1014321
09:00+25вюв357324 0.0 1016624
12:00+30юв335558 0.0 10151140
15:00+31юв455172 0.0 10141323
18:00+28вюв575736 0.0 1013948
21:00+24вюв5107518 0.0 1015530